Погода Березово

Погода Березово : погода сейчас, прогноз погоды и архив. Всё, что Вы хотите узнать о погоде Березово!

Поиск расширенной информации на нашем сайте:

Другие новости

Новости СМИ2

Главная страница сайта

Новости сайта

03.07.2017

Напоминаем, что на нашем специализированном сайте Метеоцентр.Азия вы можете получить высокодетализированные автоматические прогнозы погоды по пунктам России, СНГ и мира в авиационном формате (включающие направление и скорость ветра, видимость, явления погоды, количество и форму облачности, нижнюю и верхнюю границу облачности).


Погода Березово - сегодня

Время (UTC), дата Ветер
(°,м/с) 
Видим.   Явления Облачность Т
(°С)
Тd
(°С)
f(%) Тe
(°С)
Pmin
(гПа)
dP
(гПа)
Po
(мм)
O2
(г/м3)
Тmin Tmax R s Состояние
почвы
06 16.08.17 310 (СЗ) 20000 м    9/8 720 м кучево-дожд., средняя 
[Cb cap|Ac und]
+17.5 +12.3 72 +22  1016.5  0.4  760  285           
09 16.08.17 320 (СЗ) 20000 м  в посл. час ливневой дождь{гроза}  8/8 800 м кучево-дожд. 
[Cb cap]
+18.3 +10.7 61 +21  1017.4  0.9  760  285           
12 16.08.17 330 (СЗ) 20000 м  в посл. час ливневой дождь{гроза}  10/3 1110 м средняя, верхняя 
[Sc|Ac trans|Ci fib]
+17.5 +8.1 54 +17  1018.6  1.2  761  287           
15 16.08.17 300 (СЗ) 20000 м    10/1 1000 м средняя, верхняя 
[Cu hum|Ac trans|Ci fib]
+14.4 +9.5 72 +15  1019.8  762  290    +19.4     
18 16.08.17 280 (З) 20000 м    8/0 средняя 
[Ac trans]
+7.6 +6.7 94 +8  1019.9  0.1  762  298           
21 16.08.17 280 (З) 20000 м    3/0 средняя 
[Ac trans]
+6.9 +6.2 95 +7  1019.9  762  298           
00 17.08.17 290 (З) 20000 м    9/0 средняя, верхняя 
[Ac trans|Ci fib]
+3.8 +3.3 97 +5  1020.4  0.4  762  302           
03 17.08.17 350 (С) 20000 м    6/0 средняя, верхняя 
[Ac trans|Ci fib]
+10.8 +6.8 76 +10  1021.4  1.1  763  295  +3.6        влажная 
06 17.08.17 340 (С) 20000 м    9/1 600 м средняя 
[Cu hum|Ac trans]
+14.4 +6.4 59 +14  1023  1.6  764  292           
09 17.08.17 240 (ЮЗ) 20000 м    10/4 1200 м кучево-дожд., верхняя 
[Cb cap|Ci fib]
+16.2 +5.9 50 +16  1024  765  290           
12 17.08.17 340 (С) 20000 м    6/0 средняя, верхняя 
[Ac trans|Ci fib]
+16.6 +3.4 41 +16  1024.5  0.6  765  290           
15 17.08.17 270 (З) 20000 м    3/0 средняя 
[Ac trans]
+12.1 +5.5 64 +12  1025.2  0.6  766  295    +17.5       
18 17.08.17 240 (ЮЗ) 20000 м    3/0 верхняя 
[Ci fib]
+4.4 +3.9 97 +5  1025.8  0.5  766  303           
21 17.08.17 240 (ЮЗ) 20000 м    9/0 средняя 
[Ac und]
+4.4 +3.9 97 +5  1026.2  0.4  767  303           
00 18.08.17 220 (ЮЗ) 20000 м    6/0 средняя, верхняя 
[Ac trans|Ci fib]
+5.2 +3.3 88 +5  1025.8  -0.4  766  303           
03 18.08.17 240 (ЮЗ) 20000 м    10/0 верхняя 
[Ci fib]
+9.6 +5.6 76 +9  1025.1  -0.6  766  297  +2.9        сухая 
06 18.08.17 200 (Ю) 20000 м    10/0 средняя, верхняя 
[Ac trans|Ci fib]
+17 +8.2 56 +17  1023.6  -1.4  765  289           
09 18.08.17 220 (ЮЗ) 20000 м    10/0 средняя, верхняя 
[Ac trans|Ci fib]
+20.2 +9 48 +20  1021.6  -2  763  285           
12 18.08.17 240 (ЮЗ) 20000 м    10/1 1000 м средняя, верхняя 
[Cu hum|Ac trans|Ci fib]
+19.5 +8.9 50 +20  1019.5  -2.1  762  285           
15 18.08.17 220 (ЮЗ) 20000 м    9/1 600 м кучево-дожд., средняя 
[Cb cap|Ac und]
+17.2 +9.4 60 +18  1017.8  -1.6  761  287    +20.4       
18 18.08.17 210 (ЮЗ) 20000 м    9/0 средняя 
[Ac und]
+14.9 +9.5 70 +15  1016.9  -1  760  289           
21 18.08.17 230 (ЮЗ) 20000 м    8/0 средняя 
[Ac trans]
+12.8 +9.9 83 +14  1016.1  -0.8  759  290           
00 19.08.17 240 (ЮЗ) 20000 м    8/0 средняя 
[Ac trans]
+11.2 +10.3 94 +12  1015.9  -0.2  759  292           
03 19.08.17 260 (З) 20000 м    9/0 средняя 
[Ac und]
+11.4 +10.4 94 +12  1016.6  0.7  760  292  +10.2         
06 19.08.17 нст () 20000 м    10/8 840 м кучево-дожд., верхняя 
[Cb cap|Ci fib]
+16.8 +10 64 +19  1017.1  0.6  760  287           
Время (UTC), дата Ветер
(°,м/с) 
Видим.   Явления Облачность Т
(°С)
Тd
(°С)
f(%) Тe
(°С)
Pmin
(гПа)
dP
(гПа)
Po
(мм)
O2
(г/м3)
Тmin Tmax R s Состояние
почвы

Для получения пояснительной информации подведите курсор к названию столбца.

ПОГОДА Березово - архив

Всё, что Вы хотите узнать о погоде Березово - удобно и подробно!

Выберите нужную дату (начиная с 1 января 2015* года) и нажмите кнопку "Найти".
Будут отображены архивные сводки погоды по пункту Березово, начиная с указанной даты.


Отображать данные в формате CSV (для использования в таблицах Excel)


Внимание! Наш архив погоды предназначен исключительно для личного некоммерческого использования в познавательных целях. Если Вам необходимы официальные справки о состоянии погоды (для производственных, юридических, коммерческих и т.п. целей), обращайтесь в органы Росгидромета.

*Примечание: данная дата относится к архиву по метеостанциям СССР (Россия, СНГ, Балтия).
Архив по метеостанциям Зарубежной Европы и Азии (кроме Китая) хранится 10 дней, по другим регионам земного шара (Китай, Африка, Америка, Австралия, Океания) - 1 день.

Березово - район местоположения метеостанции


Название, широта, долгота, высота метеостанции:
Березово 63.9°ш. 65.1°д. 32 м над ур. моря [Российская Федерация]

Дополнительная информация

В oтличие oт бoльшинства пoгoдных сайтoв мы публикуем пoдрoбную метеoинфoрмацию в детальнoм прoфессиoнальнoм фoрмате.

Характеристики температуры и влажнoсти вoздуха измеряются на высoте 2 м в тени вдали oт зданий и деревьев.
Скoрoсть ветра измеряется на высoте 10 м (на урoвне рoста челoвека скoрoсть ветра ниже в 1.5-2 раза). Если метеoстанция нахoдится в гoрoде или в лесу, тo скoрoсть ветра занижена на 2-4 м/с пo сравнению с oткрытым местoм. Скoрoсть ветра над акватoриями крупных рек и oзёр, а также на вершинах хoлмoв на 2-5 м/с выше, чем в oбычных услoвиях.
Атмoсфернoе давление в разных тoчках местнoсти мoжет значительнo oтличаться oт давления на метеoстанции, в зависимoсти oт услoвий рельефа (при пoдъёме на 10 м давление пoнижается примернo на 1 мм рт.ст.).